GFSCGP_con_lsi_111.txt.gz
Lid_Strength_Index
10 15 19 15 12 11 14 15 16 15 12 14 14 14 12 11 11 10 9 8 7 8 6 6 3 3 3 4 4 3 3 3 3 3 3 3 2 2 1 0 1 1 0 1
12 15 13 12 13 14 15 16 16 15 13 13 14 14 12 12 11 9 9 7 7 7 8 5 4 4 4 4 4 4 3 3 3 3 3 2 2 1 1 0 0 0 0 1
14 13 9 10 11 13 14 15 16 15 13 13 14 15 13 11 10 8 7 7 6 6 8 5 5 4 4 4 4 4 4 3 4 4 4 3 2 1 2 1 1 0 0 1
12 11 10 10 11 11 14 12 12 13 15 16 12 18 13 12 11 10 9 8 7 8 7 5 5 5 4 4 4 4 4 3 3 4 4 3 3 3 2 2 1 1 0 0
14 13 11 11 11 9 12 9 11 11 13 16 15 17 15 13 12 11 9 8 8 8 6 5 5 4 4 5 5 4 3 3 2 3 3 4 5 4 2 1 1 1 1 0
12 10 10 11 10 9 9 11 11 12 13 17 15 15 15 15 12 11 8 7 6 6 7 5 4 4 4 5 5 4 4 2 2 2 3 3 4 4 4 3 2 2 1 1
11 11 10 9 11 10 11 13 17 18 18 18 13 15 14 12 10 9 8 7 6 6 5 6 5 5 4 5 5 4 4 3 2 3 2 3 3 2 3 3 3 3 2 2
14 15 11 9 10 11 13 13 17 19 19 17 13 17 15 9 8 8 7 7 6 6 6 5 5 5 4 5 5 5 3 3 2 2 2 1 2 2 2 2 2 2 2 1
14 14 9 9 9 10 12 14 12 15 15 17 15 14 11 9 9 8 8 8 7 6 6 5 5 5 4 5 5 5 3 3 2 2 2 2 2 2 2 2 1 1 1 2
11 15 11 10 8 9 11 10 15 15 19 19 17 17 15 11 11 9 9 9 7 7 7 5 5 5 4 4 5 4 3 3 3 2 2 2 2 2 2 2 2 2 2 2
12 13 13 11 12 13 12 14 13 14 15 19 19 17 11 12 10 10 9 8 7 7 6 6 5 4 4 5 5 4 3 3 3 2 2 3 2 3 3 3 2 2 2 2
11 14 17 15 12 10 10 13 13 17 18 16 17 17 9 9 9 9 8 7 6 6 6 6 6 5 5 5 4 4 3 3 3 2 2 2 2 2 2 3 3 2 3 3
10 13 17 17 13 11 12 11 11 12 14 16 19 17 9 9 9 8 8 7 7 6 6 6 6 5 4 5 4 4 4 3 3 2 2 2 2 2 2 3 2 2 2 2
7 12 15 17 15 13 14 13 12 12 17 15 15 15 11 10 10 8 8 7 7 7 6 5 5 5 4 4 4 4 3 3 3 2 2 2 3 2 2 3 3 3 3 2
9 14 13 13 12 12 13 13 13 14 13 15 15 15 12 10 10 8 7 7 7 7 6 6 6 5 5 4 4 4 4 4 3 3 3 3 3 3 3 3 3 2 3 3
8 13 12 14 12 12 13 12 12 12 11 12 13 15 10 8 7 7 7 7 7 7 7 6 6 6 6 5 4 4 4 4 3 3 3 2 3 4 4 4 3 3 2 3
11 12 13 16 12 12 15 13 12 11 11 11 14 12 8 9 8 8 8 7 7 7 6 7 7 7 7 7 6 4 3 3 4 3 3 2 3 4 4 3 3 4 7 8
11 12 13 16 14 19 13 9 9 10 10 9 11 9 9 9 8 7 6 7 7 6 7 7 8 8 8 8 7 4 3 3 3 4 3 3 3 3 3 4 7 9 10 11
9 11 16 18 16 14 13 10 11 13 13 9 9 9 9 8 7 8 6 5 6 7 7 8 8 9 9 9 8 4 3 3 3 4 3 3 3 5 7 10 11 12 12 13
10 10 14 16 18 21 12 9 7 8 15 9 9 10 9 8 12 10 6 6 7 8 9 9 9 9 10 9 8 7 5 4 5 4 3 4 7 9 11 12 12 13 14 15
14 13 15 16 19 14 9 8 7 16 15 8 8 8 8 9 8 6 6 7 8 9 9 9 10 11 11 9 9 9 9 11 11 10 9 9 9 11 12 13 13 14 15 15
14 15 16 15 18 18 8 9 12 10 7 7 7 7 7 7 6 7 8 9 10 10 10 9 10 11 11 10 10 10 11 11 11 12 13 13 13 14 14 15 15 15 16 16
15 12 14 13 14 8 8 8 6 6 7 7 8 7 6 7 6 8 9 9 10 10 9 9 11 12 12 12 11 13 12 11 13 14 15 16 15 15 15 16 17 17 17 18
10 9 12 12 10 9 8 6 6 6 6 7 6 6 6 6 6 9 10 10 11 11 10 11 11 13 13 13 13 13 13 13 14 15 16 16 17 17 17 17 17 18 18 19
10 9 11 11 9 8 7 6 6 6 5 6 7 8 8 8 9 10 11 12 12 12 12 11 12 13 14 14 14 14 14 15 17 18 18 19 19 19 19 19 19 20 19 19
8 10 12 13 9 9 8 6 6 6 7 7 8 9 11 10 11 12 14 13 13 14 13 12 13 13 14 14 15 15 15 16 17 18 19 19 19 19 20 20 21 18 19 18

GFSCGP_con_lsi_114.txt.gz
Lid_Strength_Index
12 17 20 17 13 12 14 15 16 16 13 14 13 15 15 13 13 12 11 11 10 8 7 7 5 3 3 2 3 3 3 4 3 2 2 2 2 2 1 1 0 0 1 1
15 17 14 13 13 14 15 17 16 15 13 14 15 15 13 12 12 11 11 10 9 9 7 7 5 4 4 3 3 3 3 4 3 2 2 2 2 2 1 1 1 0 1 1
16 15 12 12 13 14 15 16 16 15 13 13 15 16 14 12 11 10 9 9 9 9 9 7 6 4 4 3 3 3 4 3 3 2 2 2 2 2 2 1 1 1 1 2
15 13 14 12 13 12 15 12 12 12 15 17 13 19 15 13 12 11 10 10 11 10 8 7 7 5 4 3 4 4 4 3 4 3 2 2 3 3 2 2 1 1 0 1
15 13 13 14 12 9 12 10 12 13 15 16 16 17 17 13 13 12 10 10 9 7 6 6 6 4 4 3 4 4 4 3 4 3 3 3 3 2 2 1 2 1 1 0
14 12 11 11 10 10 10 12 12 13 15 19 16 16 17 15 13 12 9 7 7 6 6 5 5 4 4 4 4 3 4 4 4 4 4 4 4 3 2 2 2 2 1 1
13 13 11 10 12 11 13 14 18 19 18 19 14 16 15 13 11 9 9 8 7 6 7 6 6 5 4 4 3 4 4 4 4 4 4 5 5 3 3 2 2 2 2 1
16 17 13 11 12 13 13 14 17 20 20 19 14 18 15 11 8 8 8 7 7 6 7 6 5 4 4 4 3 4 4 4 4 3 3 3 4 4 4 4 3 2 2 1
15 15 11 10 10 10 12 14 12 15 16 17 17 15 12 9 9 8 8 8 7 6 6 6 5 5 4 4 3 3 4 4 4 4 2 2 2 2 2 2 3 3 2 1
12 15 12 11 9 10 11 9 15 14 19 19 18 17 15 12 11 10 9 8 7 7 6 5 5 5 5 4 4 3 4 4 4 3 2 2 2 2 1 2 2 2 1 1
12 14 14 12 13 14 12 13 13 13 15 19 21 17 11 11 10 10 9 8 7 6 6 5 5 5 5 3 4 4 4 4 4 2 2 2 2 2 2 2 2 2 1 1
11 13 15 15 11 11 11 13 13 17 19 16 17 17 9 11 10 8 9 7 7 6 5 5 5 5 4 4 4 4 4 4 4 3 2 2 2 2 2 2 2 2 2 2
10 13 17 16 13 12 12 13 11 13 14 17 19 16 9 10 10 10 8 7 7 6 6 5 5 5 5 4 4 4 4 5 3 3 2 2 2 2 2 2 2 2 3 2
7 12 15 18 15 13 15 14 13 13 17 16 15 14 12 11 11 11 9 7 7 6 6 6 5 5 5 4 4 4 4 4 3 3 2 2 2 2 2 2 2 2 2 2
9 13 13 13 13 13 14 14 14 14 13 16 15 15 13 11 11 11 9 7 7 7 7 7 6 6 6 5 4 3 4 4 3 3 3 2 2 2 2 3 3 3 2 2
9 13 12 13 12 12 14 13 13 12 12 13 13 13 10 10 9 10 8 7 7 7 6 6 6 6 7 7 7 3 4 4 4 4 3 2 2 2 3 3 3 3 3 2
11 12 13 16 13 13 16 13 13 12 11 12 14 11 10 10 9 8 8 7 7 7 6 6 7 8 8 8 8 7 3 4 5 4 3 3 2 3 3 3 3 3 6 7
11 12 13 16 14 20 14 11 11 11 10 10 10 10 8 8 8 8 7 7 7 6 7 8 8 9 9 9 9 8 6 4 4 4 3 2 3 3 3 4 7 9 10 11
9 11 16 19 17 14 13 12 10 13 13 9 10 9 8 8 8 9 6 5 6 8 8 9 8 10 10 10 9 9 6 3 4 4 4 3 3 4 6 8 10 11 12 13
10 10 13 15 19 22 14 9 8 9 15 9 9 10 10 9 12 10 6 7 8 8 9 9 9 11 11 11 10 8 5 3 4 4 4 4 5 6 8 11 12 13 13 14
14 13 15 15 17 15 11 9 7 16 14 9 8 8 9 10 9 6 7 8 9 9 10 9 10 10 12 12 11 10 10 11 10 9 8 8 8 10 11 13 13 14 15 15
14 15 16 15 17 19 8 9 13 10 8 7 7 7 7 8 6 7 8 9 10 10 10 10 11 12 12 13 12 12 12 13 12 12 13 13 13 13 13 14 15 15 15 16
15 12 14 13 14 9 8 8 7 6 7 7 7 7 7 7 6 8 9 10 10 10 10 11 12 12 13 14 13 15 13 13 14 15 15 15 15 15 15 16 17 17 17 18
10 9 12 12 10 9 8 6 6 6 7 6 6 6 6 7 7 9 11 11 12 12 11 11 12 13 14 15 15 15 14 14 15 16 17 17 17 17 17 17 17 17 17 18
10 9 11 11 9 8 7 6 7 6 6 8 9 9 9 9 10 11 12 13 13 13 12 12 12 13 14 14 15 15 16 16 17 18 18 19 19 19 19 19 19 19 18 18
9 10 12 13 9 9 8 6 7 8 9 8 9 11 10 10 11 12 13 13 14 14 14 13 13 14 14 15 15 16 16 16 17 17 18 19 19 19 19 19 19 17 17 17

GFSCGP_con_lsi_117.txt.gz
Lid_Strength_Index
12 15 16 15 14 14 13 14 14 14 11 11 11 12 11 10 10 10 9 8 7 6 5 5 4 3 3 1 2 1 1 1 1 2 3 3 3 2 1 0 -0 -1 -0 -0
13 15 13 13 14 14 14 15 15 12 11 12 12 13 11 10 9 9 8 7 7 6 6 5 3 3 2 2 2 2 2 1 1 1 2 2 2 1 1 0 -0 -0 -0 0
15 14 12 13 14 15 15 15 14 15 12 11 13 13 11 10 9 8 7 7 7 7 5 4 3 3 2 2 2 2 2 1 1 1 1 1 1 1 1 1 1 1 0 0
14 12 13 13 13 12 15 12 13 13 13 15 12 17 13 11 10 9 8 7 6 5 4 4 3 3 3 2 2 2 2 1 1 1 1 2 3 3 2 1 1 1 0 1
15 13 14 14 14 11 13 10 11 11 13 13 13 15 14 11 11 10 8 6 6 5 4 4 4 3 2 2 2 2 1 2 3 2 2 2 2 2 1 1 1 1 0 2
13 11 11 12 11 10 9 11 11 11 12 17 14 14 14 12 11 10 7 6 6 5 4 4 3 3 3 2 2 2 2 3 4 3 2 2 2 2 2 2 2 1 1 1
13 14 11 10 11 9 10 12 16 17 17 18 13 14 13 10 9 8 8 7 6 5 4 4 4 3 3 3 3 2 2 3 3 3 3 2 2 1 2 2 2 2 2 1
14 15 12 11 11 12 11 11 15 19 18 17 14 16 12 8 7 7 6 6 5 5 4 4 4 3 3 3 3 3 3 3 3 3 3 1 1 1 1 1 1 1 2 1
15 14 10 10 9 10 13 14 11 14 14 15 14 13 9 8 8 8 7 6 6 5 5 4 4 3 3 3 2 3 3 3 3 3 2 2 1 2 2 2 1 1 1 1
12 16 11 10 8 9 10 9 13 13 18 18 16 14 13 11 10 10 9 7 6 5 5 4 4 3 3 3 2 2 2 3 3 3 2 1 1 1 1 1 1 1 1 1
11 13 13 11 13 13 11 12 12 12 14 16 17 15 10 10 10 10 9 8 6 6 5 4 4 3 3 3 2 3 3 3 2 3 2 1 1 1 1 1 1 1 1 0
9 12 15 14 9 9 10 12 12 15 17 15 15 14 8 9 10 10 10 9 6 5 5 4 4 3 3 5 3 3 3 3 2 3 2 2 1 1 1 1 1 1 1 1
8 11 15 14 11 11 12 13 11 12 12 16 17 14 8 9 10 9 9 9 8 5 5 4 4 4 4 4 6 3 3 3 3 3 2 2 2 2 2 1 1 1 1 2
7 10 13 16 15 12 14 13 12 12 15 15 14 13 11 10 10 10 9 8 8 5 5 5 4 4 4 4 6 5 3 3 3 3 2 2 2 2 2 1 1 1 1 2
8 12 11 11 11 12 12 13 13 14 13 15 13 14 12 10 10 9 8 8 8 6 5 5 5 5 5 5 6 7 3 3 3 4 2 2 2 1 1 2 2 2 2 2
8 12 11 12 11 12 13 12 12 12 12 12 12 13 9 9 9 9 8 7 6 6 6 5 5 5 7 7 7 8 7 3 3 3 2 2 2 2 2 3 2 2 2 2
10 11 12 15 12 12 15 13 12 12 11 11 14 11 9 9 9 8 6 6 7 6 6 5 6 7 8 8 8 8 8 6 4 4 2 2 2 2 2 2 2 3 5 6
10 11 11 14 12 19 12 9 10 11 10 9 10 9 8 8 6 5 6 6 6 6 6 7 7 8 8 9 9 9 8 6 4 4 3 2 2 2 2 3 6 7 8 9
8 10 13 15 15 13 11 10 11 11 11 8 9 8 8 7 6 7 5 5 6 7 7 8 8 8 9 10 10 10 9 6 4 4 4 3 2 2 4 7 9 10 11 13
10 9 12 14 18 19 13 8 7 8 13 9 8 9 9 8 11 8 6 7 7 7 8 9 8 9 10 11 11 10 10 8 4 4 4 3 3 4 6 10 11 12 13 14
13 13 15 15 16 14 10 8 6 14 13 8 8 9 8 9 8 6 7 7 8 8 9 9 10 11 12 12 12 12 12 14 12 9 5 5 6 8 10 11 13 13 14 15
14 15 15 14 16 17 8 8 12 9 7 8 7 7 7 7 6 7 7 8 9 10 10 10 11 12 13 13 14 14 14 14 13 12 11 11 12 12 13 14 14 14 15 16
14 12 13 13 12 8 7 8 6 6 7 7 7 6 6 6 7 8 9 9 10 11 11 11 12 13 13 14 15 16 16 15 15 15 15 15 15 15 15 15 15 16 16 16
10 8 12 12 10 9 7 6 5 5 6 6 7 7 7 8 8 9 10 10 12 12 12 11 12 14 14 15 15 17 16 17 17 17 17 16 16 16 16 16 16 17 17 17
10 9 11 11 9 9 7 8 7 7 7 8 9 9 9 9 10 11 12 12 13 13 13 13 13 14 15 15 16 16 17 17 18 18 18 17 18 18 18 18 18 18 17 18
9 11 12 12 11 10 10 10 9 9 9 9 9 10 10 10 12 12 13 13 14 14 14 14 14 15 15 16 16 16 16 17 18 19 19 19 18 18 18 18 19 17 18 17

GFSCGP_con_lsi_120.txt.gz
Lid_Strength_Index
9 12 13 12 12 12 13 13 13 11 10 10 10 9 8 7 7 8 7 6 5 5 4 3 1 1 1 1 1 0 1 0 0 1 2 2 2 1 1 0 -0 -0 -1 -0
10 13 11 11 11 13 13 14 14 12 10 11 10 10 8 8 7 6 6 6 6 5 4 2 2 1 1 1 1 1 1 1 1 1 1 1 1 1 1 1 -0 -0 -0 -1
12 11 9 11 12 13 13 14 14 13 11 11 12 13 10 8 7 6 5 5 5 4 4 3 3 2 1 1 1 1 1 1 1 0 1 1 1 1 2 1 1 0 -0 -0
11 10 11 11 12 11 14 11 12 12 12 15 10 15 11 9 8 7 6 5 4 4 3 3 3 2 2 2 1 1 1 1 1 1 1 2 2 3 1 1 1 0 -0 -0
11 11 12 13 12 10 13 10 12 11 12 12 12 14 11 10 10 8 6 5 5 4 4 3 3 2 2 1 1 1 1 1 1 1 1 1 2 1 1 1 1 1 0 -0
8 7 10 11 11 10 10 11 10 10 10 15 12 12 11 10 9 9 6 6 5 4 3 3 2 2 2 1 1 1 2 2 1 1 1 1 1 1 2 2 2 1 1 1
8 8 8 9 12 10 11 12 15 16 15 17 10 12 11 8 7 6 7 6 5 4 4 3 3 3 2 2 2 2 2 2 2 2 1 1 1 1 2 2 2 1 2 1
12 13 9 9 11 12 11 11 15 19 16 14 11 14 11 7 6 6 5 5 5 4 3 3 3 3 2 2 2 2 2 2 2 2 2 1 1 1 1 1 1 1 1 1
12 12 8 7 7 9 12 13 9 12 12 14 12 11 9 7 7 7 6 5 5 4 4 3 3 2 2 2 2 2 2 2 2 2 2 2 1 1 1 1 1 1 1 1
9 12 8 9 7 7 9 9 13 12 17 17 14 12 12 9 9 9 9 9 7 5 4 3 3 2 2 2 2 3 2 2 2 2 2 1 1 1 1 1 1 1 1 1
7 10 10 8 11 13 12 12 12 11 12 16 16 13 7 8 8 9 9 8 8 6 5 4 3 2 2 2 2 2 2 2 2 2 2 2 1 1 1 1 1 1 1 1
7 9 12 11 8 9 10 13 13 16 15 12 13 13 7 7 7 8 8 8 8 7 4 3 3 3 2 2 2 2 5 2 2 2 2 2 1 1 1 1 1 0 1 0
7 10 13 12 10 9 12 11 11 12 12 14 15 13 6 6 7 7 8 8 7 7 4 3 3 3 3 3 2 2 5 6 2 2 2 2 2 1 1 1 1 1 1 1
6 9 11 14 14 11 13 13 11 12 14 13 12 11 9 8 8 7 7 7 7 6 5 4 3 3 3 2 3 3 6 7 3 2 2 2 2 2 1 1 1 1 1 1
7 11 10 10 9 10 12 12 12 13 12 14 12 11 10 8 8 7 7 6 6 6 5 4 4 4 3 3 3 5 6 7 4 3 3 2 2 1 1 1 1 1 1 1
7 11 10 11 9 10 11 11 11 11 11 11 11 11 7 7 7 7 6 6 6 4 5 4 4 4 3 4 5 7 7 7 7 3 3 2 2 2 1 1 1 1 1 2
9 10 11 14 10 10 13 11 11 11 10 10 12 9 7 8 7 6 6 5 5 5 5 4 4 4 3 3 5 8 8 8 7 5 3 2 2 2 2 1 1 2 3 4
10 10 10 13 11 17 10 7 8 10 9 9 9 8 7 7 5 4 4 4 5 5 5 4 4 4 4 4 5 8 8 8 7 6 3 2 2 2 2 2 2 5 6 8
7 10 12 15 14 12 10 8 9 9 10 7 8 7 6 6 6 6 4 5 5 4 4 5 5 5 5 6 8 9 9 9 9 7 4 2 2 2 2 4 6 8 10 11
8 8 11 12 16 18 11 8 6 6 12 7 7 8 9 8 11 9 5 5 5 6 6 6 6 6 8 9 10 10 11 12 12 12 6 3 3 3 6 8 10 10 12 13
13 13 15 14 16 12 8 6 6 13 12 7 7 9 11 10 8 6 6 7 7 7 7 7 7 9 10 11 11 13 13 14 13 12 11 4 4 6 9 11 11 13 14 14
14 14 15 14 16 18 7 7 12 8 6 7 8 8 7 7 6 7 7 8 8 8 8 8 10 11 11 13 13 14 15 15 14 13 14 9 8 10 12 13 13 13 14 15
14 12 13 12 12 8 6 7 5 5 7 7 7 7 7 7 7 8 8 9 8 9 9 9 11 12 13 14 14 16 16 16 14 15 15 15 13 13 13 14 15 15 15 16
10 8 12 11 9 9 8 8 7 6 8 8 8 7 7 8 8 9 10 11 11 10 11 11 11 12 14 15 15 16 16 16 16 16 17 16 17 16 16 16 15 16 16 17
9 9 11 11 10 9 8 9 10 9 8 9 8 8 8 8 9 10 11 12 12 11 12 12 12 13 14 15 16 16 16 16 17 16 17 17 17 18 18 17 17 17 17 17
8 11 12 12 10 10 10 10 9 9 9 9 8 8 9 9 10 10 11 12 12 13 13 14 14 14 13 15 16 16 16 17 17 18 18 18 17 18 18 19 19 17 18 17

GFSCGP_con_lsi_123.txt.gz
Lid_Strength_Index
7 10 12 10 9 10 11 12 13 11 9 8 10 9 8 6 6 7 5 5 5 5 4 3 2 1 1 0 1 1 0 0 0 1 1 1 2 1 1 0 -0 -0 -0 -0
9 10 9 9 9 10 11 12 13 12 10 9 11 11 9 8 7 7 6 5 5 4 4 3 2 1 1 1 1 1 1 0 0 0 1 1 1 1 1 1 -0 -0 -0 -0
10 9 7 9 10 11 11 12 12 13 10 10 11 13 11 9 8 7 6 5 4 4 4 3 2 2 2 2 1 1 1 1 0 0 0 1 1 1 2 1 1 0 -0 -0
8 7 8 8 10 9 12 9 11 12 12 15 10 16 12 10 8 8 6 5 5 3 3 3 3 2 2 1 1 1 1 1 0 0 1 2 3 3 2 2 1 0 -0 -0
9 7 8 9 9 8 11 8 10 11 12 13 13 14 12 8 9 9 7 5 4 4 3 3 3 2 2 1 1 1 1 1 1 1 1 2 2 2 1 1 1 1 0 -0
8 5 6 7 7 7 8 9 10 10 12 16 14 12 12 10 8 7 6 5 4 4 3 3 2 2 2 1 1 1 1 2 1 1 1 2 2 2 2 2 2 1 1 1
8 8 6 6 8 7 8 11 16 17 16 17 11 12 12 8 7 6 6 5 4 4 4 3 3 3 2 2 2 1 1 2 1 1 1 2 2 2 2 2 2 2 2 1
12 13 8 6 8 9 9 10 15 19 18 15 11 14 11 7 6 5 5 5 4 4 3 3 3 2 2 2 2 2 2 2 2 1 1 1 1 2 1 1 1 1 1 1
11 11 7 7 7 7 9 12 9 13 12 15 12 10 8 7 7 6 5 5 5 4 4 3 3 2 2 2 2 2 2 2 2 2 1 2 2 1 1 1 1 1 1 1
8 12 8 8 7 7 10 8 14 14 20 19 13 13 12 9 8 6 6 6 6 5 4 3 3 2 2 2 1 1 1 2 2 2 1 2 2 1 1 1 1 1 1 1
7 9 10 8 9 11 11 13 10 11 14 16 17 14 8 8 8 8 8 7 6 6 6 5 4 2 2 1 1 2 2 2 2 2 2 2 2 1 1 1 1 1 1 1
7 9 12 11 8 7 9 11 14 17 15 13 13 13 7 7 7 6 7 7 7 6 6 5 3 2 2 2 2 2 2 2 2 2 2 2 2 2 2 1 1 0 1 0
7 10 14 12 9 8 11 10 11 12 13 17 17 15 7 7 6 7 7 7 6 6 5 5 4 3 2 2 2 2 2 2 1 2 2 2 2 2 2 2 1 1 1 1
6 9 11 14 13 12 12 12 10 12 15 14 15 14 11 10 7 7 7 6 6 5 5 5 4 3 2 2 2 2 3 2 2 4 2 2 2 2 2 1 1 1 1 1
7 11 10 10 9 9 10 10 10 12 12 14 12 12 10 7 7 6 7 6 6 5 5 3 3 3 3 3 2 2 3 3 3 5 5 3 2 2 2 2 1 1 1 1
7 13 10 11 9 9 11 10 10 10 11 11 11 11 7 6 5 7 6 6 5 5 4 3 3 3 3 3 3 3 4 5 4 5 7 3 2 2 2 2 2 1 1 1
9 10 11 13 10 10 13 10 10 10 10 10 13 10 7 8 7 7 5 5 5 4 4 4 4 3 3 3 3 4 5 4 6 5 7 5 2 2 2 2 2 2 2 2
9 10 11 14 11 17 10 7 7 9 9 8 8 8 7 6 5 5 4 4 4 4 4 4 3 3 3 3 5 6 5 5 6 7 8 6 2 2 2 2 2 3 4 7
7 9 12 15 15 12 10 9 9 9 9 7 7 7 6 6 6 5 5 4 4 4 4 3 3 3 4 5 6 7 7 7 7 9 10 10 3 2 2 3 5 7 9 10
8 9 12 13 17 18 12 8 6 6 12 7 7 7 7 7 12 9 6 6 6 5 5 5 4 5 6 7 8 8 9 9 10 11 12 11 10 2 3 7 9 10 11 13
12 12 15 14 16 12 9 7 5 14 13 7 7 8 8 10 8 7 7 7 7 6 6 6 6 7 9 9 10 10 10 11 12 12 12 12 11 4 6 9 11 13 14 14
13 14 14 14 16 18 8 7 13 9 6 7 7 8 10 8 7 7 7 8 8 8 7 7 7 8 9 10 12 12 12 12 13 12 13 14 10 8 10 11 13 14 15 16
14 12 13 13 13 8 7 8 8 7 7 7 8 8 7 8 8 8 9 9 9 9 8 7 8 8 9 11 13 14 14 13 14 13 14 15 14 12 12 13 14 15 16 16
10 8 11 11 9 9 8 8 9 9 10 8 8 7 7 8 8 8 9 9 9 9 9 8 9 9 11 11 13 15 14 13 14 15 15 16 16 16 15 14 15 15 16 17
9 8 10 10 9 9 8 8 9 8 8 8 7 7 8 8 9 9 9 10 10 10 10 10 11 12 12 13 14 15 15 14 15 16 16 16 17 18 18 18 17 17 17 17
8 10 11 12 9 10 9 9 8 9 9 8 8 8 8 9 10 10 11 11 12 12 12 13 13 14 14 13 14 16 16 15 16 17 18 17 17 18 19 19 19 17 18 18

GFSCGP_con_lsi_129.txt.gz
Lid_Strength_Index
10 14 14 13 13 12 12 13 14 12 10 11 12 12 11 10 9 10 9 9 9 7 7 6 6 7 5 4 3 3 3 3 2 4 2 3 2 2 2 1 1 1 1 1
12 15 11 9 9 10 11 13 13 11 10 11 11 11 11 10 9 9 9 10 10 9 7 7 7 5 5 4 3 3 3 3 3 4 4 3 2 2 1 1 1 1 1 1
14 12 9 9 10 11 11 12 12 12 10 11 12 13 12 10 9 8 8 8 8 9 7 5 4 5 5 4 3 2 3 2 3 3 4 2 3 4 3 2 2 1 1 1
13 10 11 12 12 10 13 9 9 11 12 15 12 16 13 12 10 9 9 8 8 8 6 4 5 4 4 4 3 2 2 2 2 2 3 2 3 4 4 2 1 1 0 1
15 13 13 14 12 10 12 10 10 10 12 13 13 15 13 11 11 10 9 8 7 8 5 5 6 4 3 3 3 3 2 2 2 3 3 3 3 3 3 3 2 1 1 0
13 11 12 12 10 10 8 10 10 11 13 16 13 14 14 12 11 9 8 8 7 6 6 5 5 3 3 3 3 3 3 3 2 2 2 3 3 4 3 3 2 2 1 1
13 13 11 8 11 10 10 12 17 17 17 17 11 14 12 10 9 8 8 6 7 5 5 6 5 4 4 4 3 2 2 3 2 2 2 2 2 3 3 2 2 2 2 2
17 18 13 10 11 12 11 13 18 22 20 17 12 16 12 9 7 7 7 6 5 6 5 5 5 4 4 4 3 3 3 3 3 2 2 2 2 2 2 2 2 2 2 1
16 16 11 9 8 10 11 13 11 16 16 19 15 12 10 8 8 7 8 6 6 6 6 6 5 4 4 4 3 3 3 3 2 3 2 2 1 2 2 1 2 1 1 2
12 16 11 10 8 8 9 9 16 15 22 22 17 15 15 10 11 9 9 7 6 6 6 6 5 4 4 3 3 3 3 3 2 2 2 2 1 1 1 1 2 2 2 2
10 11 13 9 11 11 11 12 13 14 15 19 21 17 11 12 10 10 9 7 7 8 8 8 6 4 3 3 3 3 3 3 3 3 2 3 2 1 1 1 2 2 2 2
8 11 14 12 8 7 9 12 13 18 18 16 17 18 9 10 9 9 10 8 8 9 8 8 8 5 4 4 3 4 3 3 3 3 3 3 2 1 2 2 1 1 2 2
9 13 17 15 11 9 11 10 10 13 14 17 19 17 9 9 10 8 8 8 8 9 9 8 7 4 4 4 3 3 4 4 4 4 4 4 3 3 2 2 1 1 1 2
7 11 14 17 14 11 14 12 10 12 16 16 15 13 11 10 11 10 8 7 7 9 8 8 5 4 4 4 3 4 4 4 4 4 5 5 4 4 4 2 1 1 1 2
9 14 12 12 11 10 11 11 11 12 12 15 12 13 11 10 10 9 8 6 6 6 6 5 5 5 5 5 5 5 5 5 5 5 5 5 5 5 4 4 1 1 1 2
9 14 12 14 11 11 12 11 11 11 11 12 11 11 8 7 7 8 7 6 7 6 6 5 5 5 5 6 6 7 7 6 6 6 6 6 6 7 6 5 3 2 2 2
11 12 13 16 11 12 14 12 11 10 10 10 13 11 8 9 8 8 7 6 7 6 6 7 7 6 6 7 8 8 8 7 7 6 7 7 7 8 8 8 7 2 2 3
11 12 13 15 14 19 12 9 9 11 11 10 10 9 8 8 7 7 7 8 8 7 7 7 7 7 8 8 9 9 9 8 8 8 8 10 10 10 9 9 8 4 4 5
9 11 15 18 17 13 13 11 11 12 13 9 10 9 8 7 7 8 7 7 7 7 7 7 7 7 8 9 10 10 10 10 9 10 11 11 11 11 10 10 10 7 8 9
9 10 13 15 18 20 14 10 8 10 15 10 8 9 9 8 11 9 7 7 8 8 7 8 7 7 9 10 11 12 12 11 12 12 12 11 11 11 11 11 10 8 8 12
14 15 15 15 17 14 11 9 8 15 16 9 9 9 9 10 9 8 7 7 7 8 8 8 9 10 10 11 12 13 13 13 13 12 12 12 11 11 11 10 10 10 12 13
15 18 17 16 21 21 9 10 14 11 9 9 9 9 10 9 9 9 9 9 9 11 11 11 11 11 11 12 13 13 14 13 13 13 12 12 12 11 11 10 9 11 13 14
17 12 14 13 13 9 8 9 8 9 10 9 9 9 9 10 10 10 10 10 11 11 12 11 12 13 12 12 13 14 14 13 13 12 12 12 12 12 12 11 12 14 14 15
10 8 13 11 10 10 9 8 8 8 9 9 9 9 9 10 10 10 11 12 12 12 13 12 13 14 14 13 13 14 14 13 13 13 13 13 13 14 15 14 13 14 16 15
9 9 11 12 10 9 9 8 9 9 8 9 9 9 10 10 11 12 12 13 13 13 13 13 14 14 15 14 14 14 15 14 15 14 13 14 14 15 15 15 15 15 16 16
9 11 14 13 10 10 10 9 8 9 9 9 10 10 10 11 12 12 13 13 14 14 14 14 15 15 15 15 15 15 15 15 16 15 15 15 15 16 16 17 17 15 16 16

GFSCGP_con_lsi_132.txt.gz
Lid_Strength_Index
12 15 15 13 13 14 14 15 16 14 12 13 12 12 11 10 10 10 11 10 10 10 8 7 6 6 6 6 5 8 6 4 4 3 3 3 3 3 3 2 1 1 0 1
15 16 12 11 11 12 13 15 15 13 11 12 13 13 11 11 10 9 9 10 10 10 8 7 7 6 5 5 3 2 2 3 5 5 3 3 2 3 2 2 2 1 1 1
17 14 12 13 14 14 14 14 14 14 13 12 13 14 13 11 10 9 8 8 9 9 9 5 4 5 4 4 3 3 3 3 3 4 4 4 3 3 3 3 3 2 1 1
15 13 13 14 15 13 16 12 12 14 15 17 13 17 13 12 11 10 9 9 9 9 6 4 4 5 4 4 3 2 2 2 2 3 5 3 4 4 2 2 1 2 2 1
16 14 15 15 14 13 14 11 12 12 14 15 14 17 14 13 12 11 10 8 9 9 5 5 5 4 5 4 4 3 3 3 3 2 3 3 3 3 4 3 2 2 2 0
15 13 14 14 12 12 11 12 11 12 14 16 14 14 15 13 12 10 8 7 8 8 6 4 4 4 4 4 3 2 2 2 2 2 2 2 3 3 4 3 2 2 2 1
15 14 13 11 14 12 12 13 18 19 18 17 12 14 13 10 9 8 8 8 7 7 6 5 5 4 4 4 3 2 3 4 3 3 2 3 2 2 3 4 3 3 3 2
19 20 15 11 12 14 14 13 18 23 20 19 13 17 13 9 8 7 7 7 6 6 5 5 5 4 4 3 3 3 3 3 3 3 3 3 2 2 2 2 2 2 2 2
17 18 13 12 10 10 12 15 10 16 14 18 16 13 10 9 9 8 8 7 7 7 6 6 5 4 4 3 3 3 3 2 2 2 2 2 2 2 2 2 1 1 1 1
14 18 13 12 10 11 10 9 15 15 22 22 18 17 17 12 11 10 9 8 8 6 6 5 5 4 3 3 3 3 2 3 2 2 2 3 3 2 1 1 2 2 1 1
12 14 15 11 12 13 12 12 12 13 16 19 20 18 11 11 10 10 9 8 8 8 8 8 5 4 3 3 3 3 3 3 3 3 3 2 2 2 2 1 1 1 1 1
10 12 15 13 9 8 9 12 13 17 18 16 17 17 9 9 9 9 10 9 8 7 7 7 5 4 4 4 4 4 4 4 4 5 4 4 4 3 3 3 2 1 1 1
9 13 18 14 12 9 11 10 10 12 13 16 19 17 8 8 9 9 9 9 8 8 8 6 5 5 5 4 4 5 5 5 5 5 5 5 5 5 5 5 4 2 1 1
7 12 14 17 15 12 13 11 10 11 16 15 14 14 11 10 10 10 8 9 7 7 7 6 6 7 7 7 6 6 6 6 6 6 6 6 6 6 6 6 5 3 2 1
9 14 12 12 11 11 12 12 11 12 12 15 13 13 11 10 9 9 8 7 7 8 8 8 8 8 8 9 8 8 8 8 7 7 7 7 7 7 8 7 7 6 5 1
9 16 13 14 11 11 12 12 12 12 12 12 12 13 9 8 7 8 7 8 8 8 8 8 8 8 9 10 10 10 9 9 8 8 7 7 8 8 9 9 8 7 6 4
11 12 14 16 12 12 15 13 12 12 11 12 14 11 8 9 8 8 8 8 8 8 9 9 9 10 10 10 11 11 10 10 10 9 10 9 10 10 10 10 9 9 7 7
11 12 13 16 14 19 13 9 9 11 11 10 10 9 9 9 7 8 8 8 9 9 9 9 9 9 10 11 12 11 11 12 11 11 12 11 11 11 10 10 10 10 9 8
9 11 14 17 17 13 12 11 12 12 12 10 10 10 8 7 7 8 8 8 9 10 10 10 10 10 11 12 12 12 12 12 12 13 13 13 12 11 11 10 10 11 10 9
9 10 15 15 18 20 13 11 9 10 15 10 9 10 9 9 12 10 8 8 10 10 11 11 11 11 12 13 12 13 14 14 14 14 14 13 12 11 11 11 11 10 10 9
16 17 20 17 18 15 11 10 9 16 17 10 9 9 10 11 10 8 9 9 10 11 12 12 12 13 13 13 14 15 15 15 14 14 14 13 12 11 11 11 11 11 9 11
15 17 20 17 23 21 9 10 14 11 9 9 9 10 10 9 9 10 10 11 12 13 13 12 14 14 14 14 14 15 16 14 14 14 14 13 12 12 12 13 12 11 11 13
17 14 17 13 13 9 8 9 8 9 10 10 9 9 10 10 11 11 12 13 13 13 13 13 14 14 14 14 14 15 15 14 14 14 14 13 13 12 13 14 14 13 12 13
11 9 13 13 11 10 9 8 9 8 9 8 9 10 11 11 12 12 12 13 13 13 13 13 14 15 15 15 14 14 14 14 15 15 15 14 14 14 14 14 15 14 14 14
12 9 12 13 11 9 9 9 9 9 8 9 10 10 11 11 12 12 13 14 14 14 15 14 15 15 16 15 15 14 14 14 15 16 16 16 15 14 14 15 15 15 14 14
9 11 16 16 10 11 10 9 8 10 10 10 11 11 11 11 12 12 13 14 14 15 15 15 15 16 16 16 15 14 15 15 16 17 16 16 16 16 16 17 16 15 14 14

GFSCGP_con_lsi_135.txt.gz
Lid_Strength_Index
14 16 16 15 14 14 16 17 17 15 13 15 14 14 13 11 12 12 11 10 10 9 9 9 8 7 6 6 6 2 2 2 1 2 2 2 2 2 2 1 1 1 1 1
17 19 15 14 14 15 14 16 17 15 13 14 15 15 13 11 12 11 10 10 10 10 9 8 6 6 5 5 3 2 2 2 1 1 2 3 2 2 2 2 2 1 1 1
18 16 14 14 15 16 16 16 16 16 15 14 15 15 14 12 11 10 10 9 9 9 9 8 5 5 4 3 4 4 5 4 5 5 4 4 3 3 2 3 3 2 1 1
17 14 14 15 16 16 18 13 13 15 16 19 15 20 15 13 12 11 10 10 10 9 8 7 5 5 4 4 4 4 3 3 3 4 5 3 3 4 3 2 1 2 2 2
16 15 15 16 15 14 15 13 13 13 15 17 16 18 16 14 13 12 11 9 9 9 8 7 5 4 4 4 3 4 3 3 3 3 4 4 4 3 4 3 2 2 2 2
15 13 15 15 13 14 13 15 14 14 16 19 16 17 17 15 13 11 9 7 6 7 8 5 5 5 5 5 5 3 2 3 2 2 2 2 2 3 3 3 2 2 1 2
16 16 14 13 15 14 14 16 20 21 20 20 15 17 16 11 10 9 9 8 7 6 7 6 5 5 6 5 4 4 4 4 3 3 3 3 3 2 3 3 2 2 3 2
20 20 15 12 14 16 16 16 20 23 22 20 15 18 15 9 8 7 7 7 7 7 6 6 5 5 5 5 4 3 3 3 3 3 4 4 3 3 2 2 2 2 2 2
19 19 14 13 13 14 16 17 13 17 15 17 17 14 10 9 9 8 8 8 8 7 7 6 5 5 5 5 4 3 4 4 3 3 4 4 3 2 2 2 2 2 1 1
15 19 15 13 12 12 15 13 17 16 22 21 18 17 17 12 11 9 9 10 8 7 7 6 5 4 4 4 3 4 4 4 4 4 4 4 4 3 2 2 2 2 1 2
14 16 16 13 14 15 13 13 13 13 16 19 20 18 11 11 10 10 9 8 7 8 8 5 5 4 4 4 4 5 5 5 5 5 4 5 4 3 2 3 4 3 1 1
12 14 17 15 10 8 10 12 13 18 19 16 17 16 9 9 9 8 8 7 6 7 7 6 5 5 5 6 7 7 7 7 7 6 5 5 5 4 4 5 5 4 3 2
12 15 19 15 13 10 11 10 10 12 13 17 19 16 9 9 8 8 8 7 7 7 7 7 8 8 8 9 9 9 8 8 7 7 7 7 6 6 6 6 6 5 5 3
8 12 14 17 14 13 14 12 11 12 16 15 15 14 12 10 10 9 8 7 7 8 9 8 9 9 9 9 10 10 10 9 8 8 8 8 8 8 8 7 8 7 6 5
9 14 12 12 11 11 12 12 12 13 13 16 14 14 12 10 9 8 7 7 8 9 9 10 10 10 11 11 11 12 11 11 10 9 9 9 9 9 9 9 9 9 8 7
9 15 13 14 11 11 13 12 12 12 12 13 12 13 8 7 7 8 8 8 9 9 10 10 10 11 12 12 12 13 12 12 11 10 11 10 10 10 9 9 9 9 9 8
11 13 14 16 12 12 16 13 12 12 11 12 14 11 9 9 8 8 9 9 10 10 11 11 12 12 12 13 13 13 13 13 12 12 12 12 11 11 11 10 9 8 9 9
12 12 13 16 14 20 13 10 10 11 11 11 11 10 9 8 7 8 9 9 11 11 12 12 12 12 13 13 14 13 13 13 14 14 14 13 13 12 11 11 10 9 9 9
9 12 14 18 17 14 12 12 12 13 13 11 10 10 10 9 7 9 9 10 11 12 12 13 12 12 13 14 14 14 14 14 14 14 15 14 14 13 12 12 11 10 10 10
11 11 16 15 18 20 14 11 9 10 15 10 10 10 10 10 13 11 10 10 12 13 13 13 13 13 14 14 14 15 15 15 16 15 15 14 13 12 13 12 12 11 11 10
16 17 20 17 24 18 11 10 9 16 17 10 9 10 10 11 10 9 10 12 12 13 13 13 14 15 15 14 15 15 16 16 15 15 14 14 13 13 12 13 12 13 12 10
16 17 21 18 24 23 10 10 14 11 9 9 9 10 11 10 10 11 11 12 13 14 14 14 15 15 15 15 16 16 16 15 15 15 15 14 14 13 13 14 14 13 13 11
19 16 17 16 16 11 9 10 9 8 10 9 10 10 11 12 12 12 13 13 13 14 15 14 15 15 15 15 15 16 15 15 15 15 15 15 14 14 14 15 15 15 14 12
13 9 12 15 12 10 10 8 9 9 9 9 10 11 11 12 12 13 13 14 14 14 15 15 15 16 16 15 15 15 14 14 15 15 16 16 16 15 15 16 15 15 15 14
14 9 12 15 11 10 9 10 9 9 9 10 10 11 12 12 12 12 13 14 15 15 15 15 16 16 16 16 15 15 14 15 15 15 15 16 16 17 17 16 16 15 15 14
10 11 15 17 11 12 10 10 9 10 11 11 12 12 12 13 14 13 13 13 14 15 15 16 16 16 17 16 16 15 14 15 16 16 16 17 18 18 18 19 19 15 14 13

GFSCGP_con_lsi_138.txt.gz
Lid_Strength_Index
16 17 19 19 17 16 17 18 19 17 14 17 17 16 14 13 13 14 13 11 11 10 9 8 8 9 8 7 8 7 2 2 1 2 2 2 2 2 1 1 0 0 0 -0
18 21 17 17 17 18 19 19 19 17 14 15 17 16 14 14 13 12 12 12 11 11 10 8 8 7 5 5 5 6 2 2 1 1 1 1 1 1 1 1 0 0 0 -0
20 18 15 16 17 18 19 19 18 18 16 16 17 18 16 14 13 11 11 11 10 10 10 9 8 7 4 3 3 3 2 2 1 1 1 3 3 3 2 2 2 1 1 1
19 16 16 17 17 17 19 15 16 16 17 21 16 21 16 15 14 12 11 9 8 7 6 6 8 7 4 3 3 3 2 2 2 2 2 2 3 3 3 2 1 1 1 1
18 17 17 17 16 15 17 15 16 15 17 18 18 20 18 15 14 12 10 8 8 7 7 7 6 8 3 4 5 5 4 5 5 5 3 4 4 4 3 2 2 2 2 2
17 15 15 16 14 14 13 16 16 17 18 21 18 19 20 16 13 12 10 8 8 8 7 6 5 4 4 6 6 6 4 4 3 3 3 3 3 3 3 3 2 2 2 2
17 17 15 13 16 14 15 18 22 23 21 22 18 19 17 13 12 10 10 9 8 8 7 6 5 5 5 6 4 4 4 3 3 3 3 3 3 2 3 3 3 3 2 2
19 20 16 14 15 17 18 17 21 25 23 22 18 21 18 11 10 9 8 9 8 8 7 7 5 5 6 5 6 5 5 5 5 5 5 4 4 3 2 2 3 2 2 2
19 19 15 13 14 15 17 18 15 18 18 20 20 17 14 10 10 8 8 7 7 6 6 7 5 5 6 5 6 6 6 6 5 5 4 4 4 4 3 2 2 2 2 2
16 19 15 14 13 14 15 14 18 17 26 24 21 18 16 12 10 9 8 8 7 6 6 6 5 5 5 6 6 6 6 7 6 6 5 5 5 5 4 4 4 3 2 2
15 17 17 15 16 17 15 15 14 15 16 19 20 18 11 11 10 10 8 7 7 7 7 8 9 8 7 7 7 8 8 8 7 7 7 7 6 6 5 5 5 5 3 3
13 15 18 16 13 12 12 13 14 18 18 16 17 17 9 9 8 8 8 7 7 8 8 9 10 12 10 9 9 9 9 9 8 8 8 8 8 7 7 7 6 6 5 4
13 16 21 17 15 11 13 11 11 12 14 17 19 16 9 8 8 8 8 8 8 8 10 10 11 13 14 12 11 11 11 11 10 9 9 9 9 9 9 8 8 7 6 6
10 14 16 19 16 13 14 12 11 12 16 15 15 14 11 10 10 8 8 7 8 8 10 10 12 13 14 13 13 12 12 12 12 10 10 11 11 11 10 9 9 8 8 7
12 16 14 12 12 12 12 13 12 14 13 16 14 14 11 10 9 8 8 8 9 10 11 11 11 12 12 13 13 13 13 13 12 12 12 12 12 12 11 10 9 9 8 8
11 17 14 14 11 12 13 13 12 12 12 13 12 13 9 8 7 8 8 9 11 11 12 12 12 12 13 13 14 14 14 14 13 14 14 13 14 13 12 11 10 9 9 7
11 12 14 16 12 13 16 13 13 12 12 12 14 11 9 10 8 9 10 10 11 12 12 13 13 13 13 14 14 15 15 14 15 15 15 15 15 14 13 12 11 10 10 9
11 12 13 16 14 20 14 10 11 12 12 11 11 10 10 10 8 9 10 11 12 12 13 14 14 14 14 14 15 15 14 15 15 15 15 15 15 14 13 12 12 11 11 11
10 11 14 18 17 14 13 12 12 13 13 11 11 10 10 10 9 10 10 10 12 13 13 13 13 14 14 15 15 15 15 16 16 16 16 15 15 15 14 14 13 12 12 12
11 12 16 15 18 20 14 11 9 10 16 10 10 10 11 11 14 12 11 11 12 13 13 14 14 14 14 15 15 15 15 15 16 16 16 15 15 15 14 13 13 12 12 12
16 17 21 16 24 18 12 10 9 16 17 9 10 10 11 13 11 11 10 11 12 13 14 14 14 15 15 15 15 16 16 16 15 15 15 14 14 14 14 13 13 13 13 13
20 18 21 19 24 23 10 10 14 13 10 9 10 10 11 11 11 11 12 12 13 14 14 15 15 15 15 15 16 16 16 15 15 15 15 15 15 14 14 15 15 14 14 14
18 17 18 17 17 12 9 10 10 9 10 9 10 11 11 12 12 12 13 13 14 15 15 15 15 15 15 15 15 16 15 15 15 15 15 15 15 15 15 16 16 15 15 15
14 9 12 15 12 11 11 9 9 9 10 10 10 11 11 13 12 13 13 14 15 15 15 15 16 16 16 16 15 15 14 14 15 16 17 16 17 16 17 17 17 17 16 16
15 10 11 14 12 11 10 9 10 9 10 11 11 12 13 13 14 14 14 14 15 15 15 15 16 16 17 16 16 15 15 15 16 16 18 18 18 19 18 17 18 17 17 15
11 12 15 16 13 14 12 11 10 11 12 12 13 13 13 14 15 14 15 14 14 16 16 16 16 16 17 17 17 16 15 15 16 17 18 18 18 19 19 19 18 15 14 13

GFSCGP_con_lsi_141.txt.gz
Lid_Strength_Index
14 14 16 16 15 15 16 17 17 16 14 15 15 14 13 11 11 11 10 9 9 8 7 5 5 4 4 3 3 3 3 0 1 1 2 2 2 1 0 -0 -0 -0 -0 -1
16 17 15 15 15 16 17 17 17 15 14 14 15 15 13 12 11 10 9 8 7 6 5 4 3 3 3 3 2 2 2 2 1 1 1 1 1 1 1 0 0 -0 -0 -0
17 16 15 16 16 17 17 18 18 18 15 14 15 16 15 12 9 8 8 7 6 6 6 5 4 4 3 3 1 1 1 1 1 1 1 1 1 1 2 1 1 0 1 0
16 15 16 16 17 16 18 16 16 17 17 19 14 20 15 13 11 10 9 7 6 6 6 5 5 4 3 2 2 1 1 1 1 1 1 2 3 3 2 1 1 1 0 0
17 16 16 17 16 15 16 14 15 15 16 17 16 18 16 12 13 11 10 8 7 7 6 6 5 4 3 2 2 1 1 1 1 1 1 2 2 2 1 1 1 1 0 -0
16 14 14 15 14 14 13 15 15 14 15 19 18 18 17 14 13 11 10 8 8 7 7 6 4 3 3 2 2 2 2 3 2 1 2 2 2 2 2 2 2 2 1 0
16 15 14 13 15 13 14 15 19 20 19 20 17 18 16 13 11 10 10 8 7 7 6 6 6 4 3 3 2 4 4 6 5 4 3 2 2 2 2 2 2 2 2 1
18 19 15 13 14 16 15 16 19 24 22 20 16 19 16 10 9 8 8 7 7 6 7 7 9 7 5 4 5 7 6 5 5 4 5 3 2 1 1 2 1 1 1 1
18 18 13 13 12 13 15 16 14 17 17 19 18 15 12 10 9 7 7 7 7 7 7 8 8 10 8 9 8 7 6 6 6 5 5 4 4 3 4 3 2 2 1 1
15 19 14 13 12 12 13 11 16 16 22 22 19 17 15 11 10 8 8 8 8 8 8 8 10 10 9 11 10 9 8 8 7 6 6 5 5 5 5 4 5 4 4 2
14 16 17 14 14 15 13 14 14 14 15 18 19 15 10 11 9 9 8 8 9 9 10 10 11 11 11 10 10 10 10 10 8 8 7 7 7 7 7 6 6 5 4 4
13 15 17 16 12 11 11 12 12 15 17 15 15 14 8 8 8 8 8 8 8 8 10 10 11 11 12 12 12 11 11 10 9 8 9 8 8 9 9 8 7 7 6 5
12 15 18 16 14 11 12 11 10 11 13 15 17 14 7 7 7 8 8 8 8 9 9 10 10 12 13 13 14 13 12 12 11 10 10 10 10 10 9 9 8 7 7 6
10 13 15 18 16 13 13 11 10 11 15 14 14 12 10 9 9 8 7 7 8 9 10 10 11 12 12 13 13 13 13 12 12 12 11 12 11 11 11 10 9 8 7 6
10 14 13 13 12 11 11 11 11 13 12 15 12 13 11 9 9 8 8 8 9 10 11 11 12 12 12 13 14 14 14 13 13 13 13 13 12 12 11 11 10 9 8 7
10 14 13 14 11 11 13 11 11 11 11 12 11 12 9 8 8 8 9 9 10 11 11 12 13 13 14 14 15 15 14 14 14 14 14 14 13 12 12 11 11 10 10 9
12 13 13 15 11 12 15 12 12 12 11 12 13 11 9 9 9 9 10 10 11 12 12 13 13 14 14 15 15 16 15 14 15 15 15 14 14 14 13 12 12 12 11 10
12 11 12 14 13 19 12 10 10 11 11 11 11 10 9 9 9 9 9 11 11 12 13 13 13 14 14 14 15 15 15 15 15 15 15 15 15 15 14 14 13 13 12 12
9 10 13 16 16 13 12 11 12 13 13 10 11 10 9 9 9 10 10 10 11 12 12 13 13 13 14 14 15 15 15 15 15 15 15 15 14 15 14 14 14 14 14 13
9 10 12 14 18 19 12 10 9 9 14 10 10 10 10 11 14 12 10 10 11 12 12 13 13 13 13 14 14 14 14 14 15 15 15 14 14 15 15 14 14 14 14 14
13 14 15 15 17 14 11 9 8 15 14 10 9 10 11 12 11 10 10 11 11 12 13 13 13 13 14 14 14 15 15 15 14 14 14 14 14 14 14 13 13 14 14 14
14 15 15 16 18 17 9 10 12 11 9 9 9 10 11 11 11 11 11 12 12 13 13 13 14 14 13 14 14 15 15 14 14 14 14 14 14 14 14 14 14 14 13 14
14 12 12 13 13 11 8 10 9 9 10 10 10 10 11 12 12 12 12 12 13 13 13 13 14 14 13 14 14 15 15 14 14 14 15 15 15 15 15 15 15 15 14 15
11 9 11 12 11 10 9 9 8 8 9 9 10 11 12 13 12 13 13 13 13 13 14 14 14 15 15 14 14 14 14 14 14 15 16 15 15 15 14 14 14 15 15 14
10 9 11 11 10 9 9 8 8 8 9 10 11 12 13 13 13 13 13 14 13 13 13 13 14 14 15 14 14 14 14 14 15 15 15 15 15 15 15 14 14 14 14 14
9 10 11 11 10 10 10 9 8 10 11 12 13 13 13 13 14 14 14 13 13 14 14 14 14 14 14 14 14 14 14 14 15 15 15 15 16 15 15 15 15 14 14 14

GFSCGP_con_lsi_144.txt.gz
Lid_Strength_Index
11 12 13 13 13 13 14 14 14 13 11 13 12 12 11 10 10 9 8 7 6 5 4 3 2 2 1 0 0 1 0 -0 -0 0 1 1 1 1 0 -0 -1 -1 -1 -1
13 14 14 14 14 14 14 15 14 13 12 13 13 13 11 11 9 8 8 8 7 6 5 4 3 2 1 1 1 0 0 -0 0 0 -0 0 0 0 0 -0 -0 -1 -1 -1
14 14 13 14 14 15 15 15 15 16 14 12 13 13 12 10 9 8 7 7 6 6 5 4 3 2 1 1 1 1 0 0 -0 -0 -0 0 0 0 1 1 1 -0 -0 -1
14 13 14 14 15 14 15 14 15 15 15 16 13 17 12 11 10 9 8 7 7 6 5 4 4 4 2 1 1 1 0 0 0 -0 0 1 2 2 1 1 1 0 -0 -0
14 14 14 15 15 14 15 13 14 14 14 15 14 16 12 11 12 11 9 8 7 6 5 5 6 6 5 4 2 1 0 0 0 0 0 1 1 2 1 1 1 1 0 0
14 12 13 14 14 14 13 13 13 13 13 17 15 15 13 13 12 10 9 8 7 7 8 7 7 6 8 8 6 4 2 1 1 1 1 1 2 2 2 2 2 2 1 1
14 14 13 12 14 12 13 14 16 17 17 16 14 16 13 12 10 9 8 8 9 9 9 9 10 9 8 9 9 8 6 5 4 4 2 1 1 1 2 2 2 1 2 1
16 17 14 13 14 15 15 14 16 21 18 17 14 17 13 10 8 7 7 7 8 9 9 9 10 10 9 10 9 9 9 7 7 5 5 5 4 2 1 1 1 1 1 1
16 17 13 13 12 13 14 15 13 17 15 17 15 14 10 8 7 7 7 8 8 8 8 8 8 9 10 11 10 10 10 11 9 8 7 6 5 3 2 2 1 1 2 2
13 17 14 13 12 12 13 12 15 14 19 20 16 15 12 10 9 7 8 8 8 7 7 7 8 8 9 10 11 10 10 11 9 10 9 8 7 5 4 3 3 2 2 1
13 15 15 13 14 14 13 13 13 12 13 17 18 14 9 10 9 9 8 7 7 7 8 8 8 9 9 10 11 12 11 11 10 11 10 9 8 7 5 5 4 3 2 2
12 14 16 15 12 11 11 12 12 14 15 13 14 14 7 7 7 7 7 6 6 6 8 8 8 9 10 11 11 13 12 12 11 11 11 11 9 8 7 6 5 4 4 3
12 14 17 16 13 11 11 10 10 11 11 14 16 13 6 6 6 6 7 5 5 6 6 7 8 11 11 12 12 12 13 13 11 11 12 11 11 10 9 7 6 5 4 4
10 13 14 15 14 11 12 11 10 10 13 12 12 11 8 8 8 7 6 6 6 6 7 8 9 10 11 11 12 12 13 13 12 10 10 11 11 11 9 8 7 7 6 6
11 14 12 12 11 11 11 10 10 11 10 13 11 11 9 8 8 8 7 7 7 7 8 8 9 10 11 11 12 13 12 12 13 12 12 11 11 10 9 8 8 7 7 6
9 12 12 13 11 10 11 10 9 9 9 10 10 10 7 6 6 8 8 8 8 9 9 9 10 11 12 13 13 13 13 13 13 12 12 11 10 10 10 10 10 9 9 8
9 10 12 15 11 11 13 11 10 10 9 10 12 9 7 8 8 9 9 9 9 9 10 10 11 11 12 12 13 14 14 13 13 13 13 12 12 12 12 11 11 11 11 10
10 10 11 13 12 17 11 7 8 10 9 9 10 9 9 8 8 8 8 9 10 10 10 10 10 11 11 11 12 13 13 13 14 14 14 14 14 14 14 12 12 11 12 12
8 10 12 14 13 11 11 9 9 11 11 9 10 9 8 8 8 9 8 9 9 9 10 10 10 10 10 11 12 13 13 13 14 15 15 14 14 14 14 14 13 13 12 12
9 8 11 12 17 17 11 8 7 8 13 9 8 9 9 9 12 10 9 9 9 9 9 10 10 10 10 11 11 11 12 13 13 14 13 13 13 13 13 13 13 12 12 12
12 11 13 12 14 12 8 8 7 14 13 8 8 9 9 11 10 9 9 9 9 9 10 10 10 10 10 10 11 11 12 13 13 12 12 12 12 12 12 12 11 11 12 12
12 13 13 12 15 16 7 8 11 8 7 8 9 9 10 9 9 9 9 10 10 10 10 10 11 11 10 10 11 12 12 12 12 12 12 12 12 12 12 12 11 11 11 12
13 11 11 11 11 7 6 7 7 7 8 8 8 9 9 10 10 10 10 10 10 10 10 10 11 11 11 11 11 12 12 12 12 12 12 13 12 12 12 12 12 13 13 13
9 7 10 10 8 7 7 7 7 7 8 7 8 9 9 11 11 11 10 10 10 10 10 10 10 11 11 11 11 12 12 12 13 13 13 13 13 13 12 12 12 13 14 14
7 7 9 9 8 7 7 7 7 7 7 8 9 10 11 12 11 11 11 11 11 11 11 11 11 12 12 11 12 11 12 12 13 13 13 13 13 13 13 12 12 13 12 14
7 8 9 9 7 7 7 6 6 7 8 9 10 11 11 12 12 12 12 12 12 12 12 12 12 12 12 12 12 12 12 12 13 13 12 13 13 13 13 13 12 12 13 14